Ketchikan, AK

11:15 PM AKST on December 15, 2018 (GMT -0900)
Ketchikan International

Weather History for PAKT - September, 2018

Change the Weather History Date:

Friday, September 7, 2018

  Actual Average Record
Temperature  
Mean Temperature 58 °F -  
Max Temperature 61 °F 60 °F 73 °F (2013)
Min Temperature 54 °F 48 °F 37 °F (1985)
Degree Days  
Heating Degree Days 8    
Growing Degree Days 8 (Base 50)    
Moisture  
Dew Point 54 °F    
Average Humidity 91    
Maximum Humidity 97    
Minimum Humidity 77    
Precipitation  
Precipitation 0.97 in - - ()
Sea Level Pressure  
Sea Level Pressure 29.81 in    
Wind  
Wind Speed 6 mph (SE)    
Max Wind Speed 15 mph    
Max Gust Speed 25 mph    
Visibility 6 miles    
Events Rain    
Averages and records for this station are not official NWS values.
T = Trace of Precipitation, MM = Missing Value Source: NWS Daily Summary

Daily Weather History Graph

Daily Weather History Graph

Search for Another Location

Airport or City:

Astronomy

Sep. 07, 2018 Rise Set
Actual Time 6:04 AM AKDT 7:24 PM AKDT
Civil Twilight 5:26 AM AKDT 8:01 PM AKDT
Nautical Twilight 4:39 AM AKDT 8:47 PM AKDT
Astronomical Twilight 3:47 AM AKDT 9:39 PM AKDT
Moon 2:54 AM AKDT (9/7) 6:54 PM AKDT (9/7)
Length of Visible Light 14h 35m
Length of Day
13h 19m
Waning Crescent, 5% of the Moon is Illuminated
Sep 7
Waning Crescent
Sep 9
New
Sep 16
First Quarter
Sep 24
Full
Oct 2
Last Quarter

Hourly Weather History & Observations

Time (AKDT) Temp. Dew Point Humidity Pressure Visibility Wind Dir Wind Speed Gust Speed Precip Events Conditions
12:53 AM 55.0 °F 53.1 °F 93% 29.83 in 5.0 mi Calm Calm - 0.04 in Rain Light Rain
1:09 AM 55.0 °F 53.1 °F 93% 29.82 in 5.0 mi Calm Calm - 0.02 in Rain Light Rain
1:53 AM 54.0 °F 52.0 °F 93% 29.81 in 5.0 mi SSE 4.6 mph - 0.07 in Rain Light Rain
2:02 AM 54.0 °F 53.1 °F 97% 29.81 in 4.0 mi SSE 3.5 mph - 0.01 in Rain Light Rain
2:49 AM 55.4 °F 53.6 °F 94% 29.80 in 2.0 mi SE 4.6 mph - 0.10 in Rain Rain
2:53 AM 55.0 °F 54.0 °F 96% 29.81 in 1.8 mi SE 4.6 mph - 0.11 in Rain Rain
3:14 AM 55.0 °F 54.0 °F 96% 29.80 in 1.8 mi SSE 5.8 mph - 0.05 in Rain Rain
3:22 AM 55.0 °F 54.0 °F 96% 29.80 in 2.5 mi SSE 5.8 mph - 0.05 in Rain Light Rain
3:31 AM 55.9 °F 54.0 °F 93% 29.80 in 3.0 mi SSE 5.8 mph - 0.06 in Rain Light Rain
3:39 AM 55.9 °F 54.0 °F 93% 29.80 in 2.0 mi SSE 8.1 mph - 0.09 in Rain Rain
3:53 AM 55.9 °F 54.0 °F 93% 29.80 in 2.0 mi SSE 11.5 mph - 0.14 in Rain Rain
4:01 AM 57.0 °F 54.0 °F 89% 29.80 in 3.0 mi SE 13.8 mph 20.7 mph 0.02 in Rain Rain
4:14 AM 57.0 °F 54.0 °F 89% 29.80 in 1.8 mi SE 15.0 mph - 0.05 in Rain Rain
4:21 AM 57.0 °F 55.0 °F 93% 29.80 in 1.8 mi SE 15.0 mph - 0.07 in Rain Rain
4:37 AM 57.0 °F 55.0 °F 93% 29.80 in 2.0 mi SE 15.0 mph 20.7 mph 0.11 in Rain Light Rain
4:53 AM 57.0 °F 54.0 °F 89% 29.81 in 2.5 mi SE 13.8 mph 23.0 mph 0.12 in Rain Light Rain
5:00 AM 57.0 °F 54.0 °F 89% 29.80 in 3.0 mi SE 12.7 mph - 0.01 in Rain Light Rain
5:53 AM 57.0 °F 54.0 °F 89% 29.81 in 6.0 mi SE 13.8 mph - 0.02 in Rain Light Rain
6:06 AM 57.2 °F 53.6 °F 88% 29.81 in 4.0 mi SE 13.8 mph - N/A Rain Light Rain
6:53 AM 57.2 °F 53.6 °F 88% 29.82 in 4.0 mi SE 11.5 mph 24.2 mph N/A Rain Light Rain
7:53 AM 57.2 °F 53.6 °F 88% 29.83 in 10.0 mi SE 11.5 mph - N/A   Overcast
8:53 AM 57.2 °F 53.6 °F 88% 29.83 in 3.0 mi SE 15.0 mph 25.3 mph N/A Rain Rain
9:53 AM 57.2 °F 55.4 °F 94% 29.84 in 10.0 mi SSE 8.1 mph - N/A   Overcast
10:53 AM 57.2 °F 55.4 °F 94% 29.84 in 10.0 mi SE 11.5 mph - N/A   Overcast
11:53 AM 59.0 °F 53.6 °F 82% 29.84 in 10.0 mi SE 15.0 mph - N/A   Overcast
12:53 PM 60.8 °F 53.6 °F 77% 29.84 in 10.0 mi SE 12.7 mph - N/A   Overcast
1:53 PM 60.1 °F 55.0 °F 83% 29.84 in 10.0 mi South 4.6 mph - 0.00 in   Overcast
2:53 PM 60.1 °F 55.0 °F 83% 29.83 in 10.0 mi ESE 5.8 mph - 0.04 in   Overcast
3:53 PM 61.0 °F 55.0 °F 81% 29.82 in 10.0 mi ESE 6.9 mph - 0.01 in   Overcast
4:46 PM 57.0 °F 55.0 °F 93% 29.81 in 3.0 mi SSE 5.8 mph - 0.29 in Rain Heavy Rain
4:53 PM 57.0 °F 55.0 °F 93% 29.82 in 3.0 mi SSE 5.8 mph - 0.35 in Rain Heavy Rain
5:53 PM 57.9 °F 55.0 °F 90% 29.81 in 10.0 mi Calm Calm - 0.04 in   Overcast
6:53 PM 57.0 °F 54.0 °F 89% 29.81 in 10.0 mi South 3.5 mph - 0.02 in Rain Light Rain
7:53 PM 55.9 °F 54.0 °F 93% 29.81 in 10.0 mi Calm Calm - 0.01 in Rain Light Rain
8:53 PM 55.9 °F 54.0 °F 93% 29.80 in 10.0 mi Calm Calm - 0.00 in   Overcast
9:53 PM 55.4 °F 53.6 °F 94% 29.80 in 10.0 mi Calm Calm - N/A Rain Light Rain
10:53 PM 54.0 °F 52.0 °F 93% 29.80 in 10.0 mi Calm Calm - 0.00 in   Overcast
11:53 PM 55.0 °F 53.1 °F 93% 29.80 in 10.0 mi SE 4.6 mph - 0.00 in   Overcast